Wind_Speed
16 20 21 22 22 22 22 23 25 26 27 26 24 25 27 28 25 23 23 21 21 21 20 19 19 17 18 20 23 23 22 22 22 20 18 20 19 18 18 16 14 15 12 10 8 8 8 8 9
19 21 23 23 25 27 28 26 24 26 27 28 29 26 28 30 28 24 23 22 22 22 22 22 21 20 19 21 22 23 23 22 22 21 20 20 20 18 17 16 14 11 10 10 8 8 8 8 9
18 21 25 25 24 26 27 25 25 25 25 26 29 30 29 27 29 27 26 25 25 25 25 24 23 22 22 21 23 24 23 23 23 23 21 20 20 20 19 18 15 12 13 10 9 9 9 10 10
17 21 23 26 26 23 23 23 22 23 25 26 29 31 34 35 32 31 30 28 28 28 28 28 26 24 24 25 22 23 24 24 24 24 25 22 22 22 21 20 18 14 11 10 10 10 8 10 10
25 21 23 25 25 23 22 24 26 26 29 31 33 35 37 37 36 35 33 32 31 29 29 30 29 27 26 25 26 22 24 25 24 24 25 24 24 24 23 24 20 16 12 10 9 10 8 10 10
25 20 23 25 24 22 22 25 30 31 33 35 35 34 35 36 35 37 34 34 35 31 32 30 32 30 27 27 26 25 23 26 26 26 26 25 24 25 24 25 22 19 14 10 10 11 8 10 11
21 21 21 23 22 22 24 29 33 37 38 38 37 35 34 35 35 38 39 35 39 37 36 34 34 34 33 28 27 28 28 24 28 27 27 27 26 26 26 26 25 21 18 14 11 11 9 11 12
23 23 24 25 26 29 32 36 37 39 40 40 38 36 34 34 36 37 41 36 40 41 40 36 37 37 35 32 29 28 27 26 26 29 29 29 28 28 27 27 27 24 21 18 14 13 12 12 13
21 22 24 26 28 32 38 41 43 44 43 40 38 37 33 36 40 41 43 40 38 37 42 39 38 37 38 35 33 32 29 29 28 28 30 29 30 30 30 29 29 24 24 22 19 15 15 13 15
19 23 26 29 33 36 41 46 47 41 35 34 35 37 35 36 40 44 46 54 37 45 41 33 34 41 39 38 33 33 31 31 32 27 34 33 31 31 32 32 30 26 25 25 22 20 17 16 15
22 24 27 32 37 42 45 43 37 35 32 32 30 31 36 37 40 44 50 49 50 46 46 55 38 44 40 39 37 34 32 30 27 31 28 33 33 30 31 32 31 26 26 27 26 22 20 19 17
23 26 31 36 43 49 42 37 27 25 28 28 26 27 29 35 40 41 46 46 56 50 29 40 45 42 42 36 37 36 35 32 30 27 29 30 34 34 33 32 32 29 28 28 28 25 24 22 22
26 29 35 40 46 46 36 26 18 18 23 27 25 27 29 33 39 41 42 37 52 56 52 33 34 33 34 39 40 39 37 36 37 31 32 28 34 35 36 35 33 32 30 30 31 29 27 26 26
29 33 38 44 48 39 26 20 18 23 27 30 29 28 29 33 38 41 42 36 43 50 56 22 32 36 33 36 38 39 38 37 39 36 31 30 38 38 37 35 35 33 32 31 32 32 31 29 29
32 36 42 45 48 33 26 26 24 26 28 27 27 28 29 31 33 35 39 37 38 46 65 32 24 31 41 36 38 40 41 39 38 39 36 33 29 33 40 34 33 30 34 33 31 31 31 32 31
33 37 42 44 45 33 28 30 29 29 27 28 28 26 26 28 29 31 32 32 35 37 49 30 20 28 31 36 42 36 42 41 38 39 37 34 28 26 31 32 36 36 34 34 33 31 32 32 31
35 38 43 44 42 32 29 31 32 31 28 25 17 16 18 21 25 27 26 28 32 33 47 53 33 21 21 33 32 40 46 39 40 38 39 38 33 29 28 26 33 44 34 31 35 31 29 28 27
32 39 43 45 43 36 29 30 33 29 24 20 14 10 12 14 20 21 21 25 23 25 39 42 42 17 31 21 43 34 36 36 39 36 35 34 35 34 29 30 33 38 45 37 37 36 32 35 32
34 38 42 45 43 38 27 28 32 27 23 18 15 12 13 16 17 17 17 23 18 20 15 39 48 38 13 12 11 21 31 36 35 44 37 37 35 34 33 32 29 29 26 33 43 40 36 38 32
35 38 41 44 45 41 31 27 29 30 24 18 15 14 14 18 14 13 14 19 17 22 15 15 40 45 45 18 8 12 28 40 35 39 34 46 46 41 36 36 32 31 30 29 25 25 26 26 27
33 36 39 41 44 42 36 27 28 29 27 22 17 16 16 17 10 9 11 13 14 17 14 10 14 35 40 35 26 16 17 31 31 42 37 37 29 26 39 34 33 35 31 29 28 30 27 31 33
29 33 37 40 42 43 42 25 26 26 27 25 21 17 15 13 9 8 12 11 10 12 12 8 11 16 34 33 30 21 17 24 30 27 44 44 34 31 29 29 30 32 35 35 33 34 35 36 37
28 31 35 38 41 44 44 34 23 23 23 23 24 19 16 13 9 6 6 9 11 10 10 7 2 9 15 23 26 26 22 18 20 30 29 35 33 29 29 31 33 28 31 31 28 33 36 39 41
26 28 31 36 39 42 44 43 35 18 22 23 21 21 18 16 12 8 7 7 7 10 12 10 8 8 14 14 16 12 13 15 18 19 30 25 26 32 32 32 33 30 26 27 27 27 28 31 29
24 28 30 34 37 40 42 45 41 26 20 21 21 20 18 17 16 13 9 8 6 11 13 13 11 14 14 14 18 13 10 11 10 12 12 24 29 19 24 22 26 31 27 33 25 29 27 24 21
20 24 26 29 35 38 41 43 42 34 21 18 18 19 21 21 19 19 15 8 9 9 15 16 14 14 13 15 18 15 14 15 15 12 11 13 12 11 12 15 16 13 24 22 28 29 28 23 25
16 20 25 26 31 36 38 41 43 38 24 17 15 17 18 19 19 19 20 17 10 8 11 16 21 20 18 15 16 21 20 20 23 23 21 19 22 23 24 24 22 20 19 19 24 23 27 25 23
14 18 22 26 30 33 36 39 43 42 32 17 11 13 15 15 16 17 19 21 20 10 7 9 13 18 23 24 25 25 25 25 26 28 30 30 30 29 28 29 28 29 28 28 28 26 26 25 24
11 14 17 21 25 29 33 36 41 43 40 22 13 11 13 16 16 16 16 19 20 19 12 5 6 10 15 19 23 25 27 29 29 31 32 32 31 31 30 30 30 34 31 30 31 31 30 31 33
10 12 14 18 22 24 28 32 37 41 43 34 17 12 12 13 16 18 17 16 16 17 19 15 6 7 9 12 17 19 21 23 24 24 25 28 29 27 28 29 29 30 32 36 35 34 33 33 40
Wind_Direction
316 300 300 302 298 291 286 284 283 281 279 275 266 265 271 272 267 263 267 263 255 254 258 259 256 243 232 233 227 224 221 220 220 223 220 216 213 215 222 218 222 227 227 225 209 217 229 236 243
326 312 306 301 302 296 286 280 283 284 286 287 285 277 273 276 278 273 268 269 271 257 252 254 255 252 238 232 229 229 226 227 230 228 229 221 223 219 223 226 220 207 197 188 215 224 234 244 248
329 318 314 310 302 295 296 294 286 283 285 285 285 283 279 270 273 274 273 264 267 262 254 249 246 247 247 237 231 228 227 228 229 233 234 232 225 226 220 227 213 199 204 215 232 231 240 242 248
335 327 314 309 311 304 299 297 292 292 289 284 283 280 280 276 268 262 262 261 259 259 259 251 248 242 242 240 236 232 228 228 229 230 234 236 230 230 226 228 224 209 212 238 233 237 250 258 249
343 327 311 310 315 308 305 302 302 296 294 294 288 282 276 270 265 264 260 256 252 255 259 260 252 247 241 239 236 234 230 229 231 229 230 235 238 231 229 231 230 228 231 229 236 241 245 251 255
343 331 318 311 312 308 302 302 304 300 297 290 283 275 270 267 258 259 253 250 251 246 248 249 252 247 246 242 238 234 234 227 227 232 230 230 236 237 236 235 237 237 239 240 245 243 229 239 249
343 333 320 311 307 300 300 300 301 299 294 287 284 278 269 264 257 248 251 249 248 243 243 242 242 243 240 238 241 237 234 237 226 227 233 231 231 234 236 240 243 242 243 243 253 254 230 237 249
350 335 323 317 313 313 311 307 302 297 292 286 276 273 269 258 252 241 242 243 247 238 235 236 239 239 234 229 229 233 236 232 233 226 226 230 232 235 234 237 241 242 244 249 250 251 240 238 246
350 329 324 318 316 317 314 308 304 295 285 273 268 264 255 251 243 235 235 240 188 225 232 227 234 238 240 232 224 222 225 231 236 229 226 227 230 229 232 234 238 236 241 245 250 246 246 238 243
342 335 327 323 321 322 317 311 300 285 275 266 264 262 253 249 244 235 235 228 232 208 213 216 228 233 234 236 231 227 221 223 228 240 226 226 225 231 232 232 231 231 239 244 244 247 245 239 238
348 339 331 329 329 328 323 308 295 282 273 274 271 264 256 247 247 242 243 232 236 218 208 225 215 225 229 231 230 226 222 219 225 234 238 222 224 230 232 235 235 230 229 238 243 246 248 242 237
349 344 337 338 336 340 330 317 306 290 285 285 277 266 258 243 245 243 250 238 227 236 193 206 203 217 223 224 230 228 224 221 218 228 232 232 223 226 232 234 235 233 230 233 241 242 246 246 243
355 350 345 342 346 348 341 333 319 298 290 289 278 268 260 248 245 248 249 251 236 230 223 225 204 209 216 218 223 227 226 230 223 220 228 232 229 227 232 234 236 235 233 232 237 242 243 246 251
356 354 350 349 352 352 350 344 322 302 296 290 280 266 258 250 247 251 254 251 248 233 223 196 208 208 202 219 224 229 231 229 227 226 224 230 230 225 228 230 234 236 236 237 236 240 245 247 251
1 357 355 352 357 356 349 342 328 316 307 298 282 267 259 254 252 257 258 250 249 240 233 240 219 216 217 220 224 230 229 230 233 232 231 231 234 232 231 232 238 239 240 242 243 245 249 251 255
2 2 357 357 359 359 352 343 335 331 322 310 285 264 259 253 252 266 263 246 244 244 246 228 234 195 205 221 226 219 230 227 231 234 235 239 233 225 235 236 235 238 238 244 244 245 250 254 256
2 4 1 1 360 355 349 347 346 341 336 338 315 293 273 260 254 266 260 241 240 242 231 239 233 221 234 218 206 221 229 234 236 235 234 235 238 230 227 233 239 236 237 243 247 247 254 259 263
4 7 4 3 2 355 347 349 352 350 344 343 335 320 301 275 263 268 260 249 248 245 242 250 234 196 212 217 223 225 233 233 225 236 237 238 237 236 231 235 243 245 235 240 243 247 246 250 256
10 7 7 3 5 358 349 352 357 357 348 345 340 341 324 291 270 256 268 255 253 250 278 249 241 230 205 246 209 218 228 222 236 229 236 239 234 237 232 237 243 245 250 255 241 242 237 243 247
11 8 8 5 6 7 357 353 1 1 358 348 342 329 310 327 292 258 269 252 262 239 282 313 251 245 247 250 257 262 228 217 239 226 219 232 244 239 245 238 235 238 242 247 244 243 252 256 256
12 9 9 7 8 11 6 351 2 2 2 358 343 340 328 326 306 269 269 243 247 234 268 302 294 261 254 243 261 260 239 225 241 231 222 231 208 198 231 240 246 238 238 244 246 253 251 248 254
11 6 10 8 10 13 12 0 357 1 358 357 356 345 343 335 338 296 260 251 212 208 253 283 302 282 262 250 266 265 277 258 227 232 229 236 225 229 219 242 248 251 246 238 241 246 251 251 256
12 7 9 11 10 12 11 13 354 357 360 354 358 356 345 348 338 334 288 245 209 195 251 206 274 294 283 268 267 264 280 267 254 235 220 229 235 235 210 233 231 251 252 263 265 259 260 262 254
9 7 8 12 11 11 11 9 10 350 358 360 357 0 2 355 347 340 312 261 212 189 231 249 234 269 287 258 248 260 251 263 246 235 220 215 222 227 229 226 237 241 249 248 255 261 263 269 269
6 7 6 12 11 11 11 8 6 4 355 5 5 7 7 16 12 352 327 305 239 203 213 227 225 243 255 253 257 263 249 262 267 292 270 236 238 227 222 230 238 248 242 245 248 248 261 269 272
7 3 5 11 11 9 11 9 6 4 352 4 17 25 24 20 20 19 12 331 286 234 205 209 217 227 235 227 245 259 257 241 232 231 256 276 284 263 253 248 234 256 246 246 239 244 256 263 261
6 1 1 10 11 9 9 9 8 3 358 3 15 19 24 24 22 22 17 12 348 281 236 213 206 204 207 235 234 242 239 243 237 239 229 239 256 248 242 239 239 250 256 253 255 255 257 262 267
353 360 3 5 8 10 7 9 6 5 1 359 6 9 16 22 24 24 22 15 16 352 306 246 221 217 215 212 214 221 230 236 235 234 234 235 238 243 243 245 244 241 248 245 243 242 249 251 262
342 350 359 4 6 7 6 7 7 6 4 355 352 346 358 8 12 11 13 15 17 25 12 303 271 239 229 227 226 225 225 227 228 230 233 236 240 243 245 248 246 246 247 248 249 253 251 245 253
334 344 354 2 4 4 6 6 9 7 6 3 348 334 349 341 350 356 354 356 3 11 17 14 336 256 249 239 232 230 231 232 234 235 236 238 240 242 244 247 251 249 246 248 249 251 253 255 250
Height
5838 5837 5834 5833 5834 5829 5827 5827 5824 5822 5820 5820 5820 5821 5819 5818 5821 5823 5821 5820 5820 5820 5821 5822 5823 5822 5823 5824 5826 5828 5830 5833 5834 5836 5836 5838 5839 5842 5844 5844 5845 5846 5847 5848 5849 5849 5850 5850 5850
5837 5835 5831 5829 5829 5824 5822 5822 5819 5817 5816 5816 5816 5816 5817 5816 5816 5817 5818 5819 5818 5817 5818 5819 5820 5821 5820 5822 5823 5826 5829 5831 5835 5835 5836 5837 5840 5840 5843 5844 5843 5844 5847 5847 5848 5848 5849 5849 5849
5833 5830 5827 5825 5822 5819 5818 5817 5815 5814 5813 5812 5811 5811 5812 5813 5812 5812 5814 5814 5815 5815 5815 5816 5816 5817 5819 5819 5821 5823 5825 5829 5831 5834 5835 5836 5838 5840 5840 5843 5842 5844 5846 5846 5847 5848 5848 5848 5848
5831 5828 5825 5820 5818 5816 5814 5811 5810 5809 5808 5807 5806 5806 5806 5805 5806 5806 5807 5810 5810 5810 5812 5812 5813 5813 5814 5817 5819 5821 5822 5824 5828 5830 5834 5835 5835 5838 5839 5841 5842 5844 5845 5848 5847 5847 5846 5846 5845
5829 5825 5821 5816 5814 5812 5808 5806 5804 5804 5802 5801 5800 5800 5798 5798 5798 5800 5801 5802 5804 5806 5806 5809 5811 5811 5811 5812 5815 5817 5819 5821 5824 5826 5830 5833 5835 5835 5836 5838 5840 5843 5845 5846 5847 5847 5845 5843 5844
5823 5820 5816 5813 5810 5807 5805 5802 5800 5797 5796 5794 5793 5793 5791 5791 5793 5791 5793 5794 5795 5798 5799 5801 5805 5807 5808 5809 5810 5812 5815 5817 5820 5824 5826 5828 5831 5835 5836 5837 5838 5840 5842 5844 5845 5846 5845 5843 5841
5820 5816 5813 5810 5807 5804 5800 5797 5794 5790 5785 5782 5782 5784 5784 5782 5783 5783 5783 5786 5788 5790 5792 5794 5797 5798 5801 5804 5806 5807 5810 5812 5815 5818 5823 5825 5827 5831 5833 5836 5837 5839 5841 5841 5843 5843 5843 5843 5841
5815 5811 5807 5804 5801 5797 5793 5790 5785 5783 5778 5772 5769 5771 5772 5772 5771 5774 5774 5777 5771 5778 5783 5786 5788 5791 5793 5796 5799 5802 5805 5809 5811 5813 5817 5820 5823 5827 5829 5831 5835 5837 5839 5840 5841 5842 5841 5841 5841
5810 5808 5804 5800 5796 5793 5787 5780 5776 5770 5765 5761 5757 5756 5760 5760 5759 5761 5764 5769 5755 5765 5773 5775 5781 5784 5788 5790 5792 5794 5798 5802 5806 5809 5812 5815 5818 5820 5823 5826 5830 5833 5836 5838 5840 5839 5840 5839 5839
5808 5804 5800 5796 5791 5787 5779 5771 5762 5756 5751 5749 5748 5747 5749 5749 5748 5749 5752 5752 5748 5757 5759 5762 5768 5775 5780 5785 5788 5790 5792 5795 5800 5804 5806 5810 5813 5816 5818 5820 5823 5827 5832 5834 5835 5836 5837 5837 5836
5805 5801 5796 5791 5785 5777 5768 5759 5751 5746 5744 5742 5741 5741 5739 5740 5739 5738 5739 5746 5745 5750 5754 5755 5760 5765 5772 5777 5781 5784 5788 5789 5794 5797 5801 5804 5808 5811 5814 5816 5819 5823 5826 5828 5830 5832 5833 5834 5834
5802 5797 5792 5786 5777 5766 5756 5748 5743 5740 5738 5736 5735 5733 5731 5732 5730 5731 5728 5738 5739 5739 5742 5751 5752 5755 5762 5767 5772 5777 5783 5785 5788 5791 5795 5798 5802 5805 5808 5811 5814 5818 5821 5823 5825 5828 5829 5830 5830
5798 5792 5786 5780 5770 5759 5749 5743 5739 5736 5733 5730 5728 5726 5725 5725 5725 5725 5725 5728 5731 5735 5734 5735 5744 5751 5754 5760 5763 5770 5775 5780 5783 5785 5790 5793 5797 5800 5803 5806 5809 5812 5815 5818 5820 5822 5824 5825 5826
5793 5788 5781 5773 5762 5752 5745 5741 5736 5731 5726 5723 5720 5718 5717 5718 5718 5718 5717 5724 5725 5727 5727 5734 5739 5743 5744 5753 5758 5764 5769 5774 5778 5780 5784 5787 5790 5794 5797 5801 5803 5807 5810 5812 5814 5816 5819 5820 5821
5791 5784 5776 5768 5758 5749 5741 5737 5732 5726 5719 5715 5712 5710 5709 5710 5710 5710 5711 5714 5718 5721 5721 5731 5732 5737 5740 5743 5750 5757 5763 5769 5772 5777 5780 5783 5786 5790 5793 5797 5799 5801 5805 5807 5809 5812 5813 5816 5817
5788 5781 5774 5765 5755 5746 5739 5733 5727 5720 5714 5708 5703 5701 5700 5702 5704 5704 5703 5707 5711 5714 5717 5723 5729 5732 5736 5736 5741 5747 5755 5761 5765 5770 5775 5779 5781 5784 5788 5791 5795 5797 5799 5802 5805 5807 5809 5811 5812
5785 5778 5771 5761 5752 5744 5737 5729 5723 5715 5708 5702 5697 5696 5695 5697 5699 5699 5697 5701 5704 5706 5711 5715 5722 5723 5726 5732 5735 5742 5749 5755 5760 5764 5768 5773 5776 5779 5781 5785 5788 5791 5794 5796 5799 5801 5804 5807 5808
5784 5775 5768 5759 5751 5741 5735 5727 5720 5713 5706 5701 5697 5695 5693 5694 5695 5695 5693 5696 5700 5704 5707 5710 5715 5718 5723 5726 5733 5737 5743 5748 5753 5758 5762 5767 5771 5774 5776 5779 5782 5784 5787 5791 5794 5796 5799 5800 5803
5780 5775 5767 5758 5750 5740 5733 5725 5719 5712 5706 5701 5697 5695 5693 5691 5692 5692 5692 5692 5697 5700 5704 5706 5709 5713 5719 5725 5726 5728 5737 5742 5747 5753 5756 5761 5764 5768 5771 5774 5778 5780 5783 5785 5788 5790 5791 5793 5796
5777 5772 5765 5758 5749 5739 5730 5724 5719 5712 5706 5701 5698 5696 5693 5690 5688 5689 5690 5689 5693 5697 5700 5701 5706 5710 5714 5722 5726 5729 5732 5738 5741 5745 5752 5754 5757 5761 5764 5769 5772 5775 5778 5780 5781 5784 5785 5786 5789
5776 5771 5765 5759 5749 5738 5730 5723 5717 5712 5706 5702 5698 5695 5693 5690 5687 5687 5687 5689 5690 5695 5701 5702 5702 5707 5711 5720 5724 5727 5729 5732 5735 5741 5745 5748 5750 5752 5757 5763 5767 5769 5773 5775 5777 5778 5779 5782 5784
5775 5770 5764 5758 5750 5740 5731 5726 5718 5712 5707 5702 5698 5695 5692 5690 5687 5686 5686 5686 5688 5692 5699 5701 5702 5703 5707 5716 5721 5724 5725 5727 5732 5735 5738 5743 5747 5750 5754 5758 5762 5764 5766 5769 5771 5773 5775 5777 5778
5776 5770 5764 5758 5750 5742 5734 5726 5719 5714 5708 5703 5699 5696 5692 5689 5688 5687 5687 5686 5685 5688 5694 5699 5700 5703 5707 5713 5719 5720 5722 5724 5728 5731 5734 5739 5743 5745 5746 5753 5756 5760 5761 5763 5765 5767 5768 5769 5771
5775 5771 5764 5757 5752 5745 5736 5728 5721 5715 5711 5705 5701 5697 5694 5690 5688 5687 5686 5686 5684 5685 5691 5695 5697 5701 5705 5710 5714 5716 5720 5722 5724 5727 5730 5735 5739 5743 5745 5747 5751 5754 5756 5758 5760 5761 5762 5763 5763
5775 5770 5765 5759 5752 5746 5738 5731 5722 5715 5712 5707 5702 5698 5695 5692 5689 5686 5686 5685 5684 5684 5687 5691 5694 5698 5703 5706 5709 5713 5715 5718 5720 5723 5724 5730 5733 5737 5738 5741 5745 5748 5749 5751 5754 5754 5756 5756 5756
5774 5770 5765 5759 5753 5747 5740 5733 5726 5717 5712 5708 5704 5700 5697 5694 5692 5689 5685 5684 5683 5684 5686 5687 5690 5694 5697 5701 5705 5709 5712 5713 5717 5720 5722 5725 5728 5730 5734 5736 5738 5740 5741 5743 5746 5748 5749 5749 5750
5773 5769 5765 5761 5755 5749 5743 5737 5728 5720 5714 5709 5706 5703 5700 5697 5694 5692 5689 5685 5684 5684 5684 5685 5687 5688 5693 5697 5699 5704 5707 5708 5711 5715 5717 5721 5725 5726 5728 5730 5731 5733 5734 5737 5739 5739 5740 5742 5742
5772 5769 5765 5759 5755 5750 5745 5738 5731 5723 5715 5711 5708 5706 5704 5700 5698 5696 5693 5690 5686 5683 5683 5683 5684 5685 5687 5689 5692 5697 5700 5702 5706 5708 5710 5712 5715 5718 5720 5722 5724 5726 5728 5730 5731 5732 5733 5734 5735
5771 5768 5764 5759 5755 5751 5746 5741 5734 5726 5717 5712 5709 5707 5704 5702 5700 5697 5695 5693 5690 5687 5685 5684 5682 5682 5684 5685 5688 5690 5692 5694 5697 5700 5703 5704 5706 5709 5710 5714 5716 5718 5721 5723 5724 5725 5726 5729 5729
5769 5766 5762 5758 5756 5751 5747 5743 5736 5729 5721 5713 5707 5706 5704 5702 5700 5698 5695 5693 5691 5688 5686 5683 5681 5681 5681 5682 5684 5685 5687 5688 5690 5692 5695 5697 5699 5702 5704 5706 5708 5711 5713 5715 5715 5718 5717 5719 5721